Location: *
(12.5665°N, 8.3471°E)
Time: 00:45:20
(UTC+00:00)

Meteor PRIRODA - Pass Details

Date: 23 September 2019
Orbit: 492 x 510 km, 97.5° (Epoch: 21 October)

Event Time Altitude Azimuth Distance (km) Brightness Sun altitude
Rises 03:57:04 0° 11° (NNE) 2,595 7.5 -20.0°
Reaches altitude 10° 03:59:09 10° 12° (NNE) 1,713 6.5 -19.5°
Maximum altitude 04:02:50 86° 101° (E) 512 3.6 -18.6°
Drops below altitude 10° 04:06:33 10° 190° (S) 1,720 6.2 -17.7°
Sets 04:08:38 0° 191° (S) 2,606 7.1 -17.2°
